Weather History for Moab, UT

Change the Weather History Date:

Friday, March 29, 2013

  Actual Average Record
Temperature  
Mean Temperature 56 °F 48 °F  
Max Temperature 72 °F 62 °F 85 °F (1986)
Min Temperature 39 °F 33 °F 19 °F (2011)
Degree Days  
Heating Degree Days 9 17  
Month to date heating degree days 557 604  
Since 1 July heating degree days 5487 5013  
Cooling Degree Days 0 0  
Month to date cooling degree days 0 0  
Year to date cooling degree days 0 0  
Growing Degree Days 5 (Base 50)    
Moisture  
Dew Point 21 °F    
Average Humidity 26    
Maximum Humidity 37    
Minimum Humidity 14    
Precipitation  
Precipitation 0.00 in 0.03 in 0.72 in (1979)
Month to date precipitation 0.06 0.72  
Year to date precipitation 0.69 1.88  
Sea Level Pressure  
Sea Level Pressure 30.01 in    
Wind  
Wind Speed 5 mph (WNW)    
Max Wind Speed 14 mph    
Max Gust Speed 21 mph    
Visibility 10 miles    
Events      
T = Trace of Precipitation, MM = Missing Value Source: NWS Daily Summary

Daily Weather History Graph

Daily Weather History Graph

Search for Another Location

Airport:

Trip Planner

Search our weather history database for the weather conditions in past years. The results will help you decide how hot, cold, wet, or windy it might be!

Date:

Astronomy

Mar. 29, 2013 Rise Set
Actual Time 7:07 AM MDT 7:39 PM MDT
Civil Twilight 6:41 AM MDT 8:06 PM MDT
Nautical Twilight 6:09 AM MDT 8:38 PM MDT
Astronomical Twilight 5:37 AM MDT 9:10 PM MDT
Moon 10:41 PM MDT (3/29) 8:21 AM MDT (3/29)
Length of Visible Light 13h 25m
Length of Day
12h 32m
Waning Gibbous, 93% of the Moon is Illuminated
Mar 29
Waning Gibbous
Apr 2
Last Quarter
Apr 10
New
Apr 18
First Quarter
Apr 25
Full

Hourly Weather History & Observations

Time (MDT) Temp. Dew Point Humidity Pressure Visibility Wind Dir Wind Speed Gust Speed Precip Events Conditions
12:53 AM 55.0 °F 16.0 °F 22% 29.94 in 10.0 mi NE 5.8 mph - N/A   Overcast
1:53 AM 53.1 °F 15.1 °F 22% 29.94 in 10.0 mi Calm Calm - N/A   Partly Cloudy
2:53 AM 48.9 °F 16.0 °F 27% 29.96 in 10.0 mi SSW 5.8 mph - N/A   Partly Cloudy
3:53 AM 46.9 °F 17.1 °F 30% 29.98 in 10.0 mi NW 9.2 mph - N/A   Clear
4:53 AM 46.0 °F 16.0 °F 30% 29.99 in 10.0 mi Calm Calm - N/A   Clear
5:53 AM 44.1 °F 17.1 °F 34% 30.01 in 10.0 mi Calm Calm - N/A   Clear
6:53 AM 39.9 °F 16.0 °F 38% 30.04 in 10.0 mi Calm Calm - N/A   Clear
7:53 AM 42.1 °F 16.0 °F 35% 30.08 in 10.0 mi Calm Calm - N/A   Clear
8:53 AM 50.0 °F 21.0 °F 32% 30.09 in 10.0 mi Calm Calm - N/A   Clear
9:53 AM 57.9 °F 21.0 °F 24% 30.06 in 10.0 mi Calm Calm - N/A   Clear
10:53 AM 62.1 °F 25.0 °F 24% 30.06 in 10.0 mi Variable 4.6 mph - N/A   Clear
11:53 AM 66.0 °F 26.1 °F 22% 30.04 in 10.0 mi Variable 6.9 mph - N/A   Clear
12:53 PM 66.9 °F 26.1 °F 21% 30.03 in 10.0 mi West 8.1 mph - N/A   Clear
1:53 PM 70.0 °F 24.1 °F 18% 30.00 in 10.0 mi Variable 5.8 mph - N/A   Clear
2:53 PM 69.1 °F 21.0 °F 16% 29.99 in 10.0 mi Variable 3.5 mph 17.3 mph N/A   Clear
3:53 PM 71.1 °F 19.9 °F 14% 29.98 in 10.0 mi NNW 10.4 mph 17.3 mph N/A   Clear
4:53 PM 71.1 °F 21.0 °F 15% 29.97 in 10.0 mi West 11.5 mph 19.6 mph N/A   Clear
5:53 PM 71.1 °F 21.9 °F 16% 29.97 in 10.0 mi WNW 8.1 mph - N/A   Clear
6:53 PM 69.1 °F 21.9 °F 17% 29.99 in 10.0 mi NNW 9.2 mph - N/A   Scattered Clouds
7:53 PM 64.0 °F 21.9 °F 20% 30.01 in 10.0 mi NW 6.9 mph - N/A   Mostly Cloudy
8:53 PM 59.0 °F 23.0 °F 25% 30.02 in 10.0 mi WNW 9.2 mph - N/A   Partly Cloudy
9:53 PM 59.0 °F 24.1 °F 26% 30.02 in 10.0 mi WNW 11.5 mph - N/A   Overcast
10:53 PM 54.0 °F 24.1 °F 31% 30.04 in 10.0 mi SW 5.8 mph - N/A   Scattered Clouds
11:53 PM 48.9 °F 21.9 °F 35% 30.04 in 10.0 mi West 5.8 mph - N/A   Clear